7 * 24
多渠道服务支持
Hi!有什么问题可以问我哦~
STARLINK-36588是美国于2026年1月25日发射的星链卫星,星链是SpaceX打造的全球卫星互联网星座项目,这类卫星运行在近地轨道,旨在为全球范围提供低延迟、高速率的宽带互联网服务,为偏远地区网络覆盖、应急通信等场景提供支撑。
美国
(US)
| 数据来源 | 国际轨道数据 |
| 星历时间: | 2026-04-04T01:51:33+0800 6小时前 查看轨道信息 |
| 半长轴: | 6843.764km |
| 偏心率: | 0.0001891 |
| 轨道倾角: | 97.284° |
| 近地点辐角 | 91.590° |
| 升交点赤经 | 154.799° |
| 平近点角 | 268.556° |
| 近地点: | 464.332km |
| 远地点: | 466.922km |
| 周期: | 93.908分钟 |
| 每日圈数: | 15.334169 |